{"data":{"norad_id":68030,"intl_designator":"2026-040R","name":"STARLINK-36942","alt_names":[],"object_type":"PAYLOAD","status":"ACTIVE","operator":null,"country":"US","launch_date":"2026-03-01","launch_site_code":"AFWTR","launch_vehicle":null,"mission":null,"orbit_class":"UNKNOWN","rcs_meters":null,"size_class":null,"mass_kg":null,"dimensions":null,"purposes":["comms"],"wikipedia_slug":null,"has_3d_model":false,"image_url":null,"decayed_at":null,"tle_current":{"epoch":"2026-05-24T20:05:34.753920Z","epoch_age_seconds":89184,"freshness":"FRESH","line1":"1 68030U 26040R   26144.83720780  .00017171  00000+0  53291-3 0  9990","line2":"2 68030  97.2840  93.8717 0001707  97.4208 262.7228 15.33449135 13134","mean_motion":15.33449135,"eccentricity":0.0001707,"inclination_deg":97.284,"raan_deg":93.8717,"arg_perigee_deg":97.4208,"mean_anomaly_deg":262.7228,"bstar":0.00053291,"rev_number":1313,"period_min":93.905951435422,"perigee_km":464.3626575493,"apogee_km":466.69908576069,"semimajor_km":6843.667871655,"source":"CELESTRAK","updated_at":"2026-05-25T13:38:21.807408Z"}}}